TDRS 3

Last updated on Tue Jan 14 2025 00:02:33 GMT+0000 (Coordinated Universal Time)

1 19548U 88091B 25013.31171812 -.00000300 00000+0 00000+0 0 9990 2 19548 12.9996 344.4747 0041725 339.1406 212.6135 1.00279006120179
UTC large
Height (km)
Speed (km/s)
/
Latitude / Longitude
Inclination (degrees)
Orbital Period (minutes)
Azimuth
Elevation
Range (km)
Doppler Factor

Next 0 passes for location: London (51.5072 / 0.1276)

Sorry there are no passes over London.